AirNav   Air Wisconsin Up To $57,000 Bonus
 
 928 users online  

8TN7 Short Creek Airport
Dover, Tennessee, USA

GOING TO DOVER?


FAA INFORMATION EFFECTIVE 22 APRIL 2021

Location

FAA Identifier: 8TN7
Lat/Long: 36-24-03.0000N 087-59-30.0000W
36-24.050000N 087-59.500000W
36.4008333,-87.9916667
(estimated)
Elevation: 390 ft. / 119 m (estimated)
Variation: 01W (1995)
From city: 10 miles SW of DOVER, TN
Time zone: UTC -5 (UTC -6 during Standard Time)
Zip code: 37058

Airport Operations

Airport use: Private use. Permission required prior to landing
Control tower: no
ARTCC: MEMPHIS CENTER
FSS: JACKSON FLIGHT SERVICE STATION
Attendance: UNATNDD
Wind indicator: yes
Segmented circle: no

Airport Communications

WX AWOS-3 at PHT (19 nm W): 118.825 (731-644-0451)

Nearby radio navigation aids

VOR radial/distance  VOR name  Freq  Var
CKVr246/30.9CLARKSVILLE VOR/DME110.6001W

 
NDB name  Hdg/Dist  Freq  Var  ID
TRAINER066/22.441000ETIQ - .. --.-
HUNTINGDON053/29.721702WHZD .... --.. -..

Airport Services

Runway Information

Runway 7/25

Dimensions: 2560 x 30 ft. / 780 x 9 m
Surface: turf
RUNWAY 7  RUNWAY 25
Traffic pattern: leftleft

Airport Ownership and Management from official FAA records

Ownership: Privately-owned
Owner: WILLIAM HOLDER
8044 GLEASON DR #J2
KNOXVILLE, TN 37919
Phone 423-691-3165
Manager: WILLIAM HOLDER
SHORT CREEK RD
DOVER, TN 37058
Phone 865-691-3165

Airport Operational Statistics

Aircraft based on the field: 2
Single engine airplanes: 1
Multi engine airplanes: 1
    

Additional Remarks

1100 FT MSL RADIO TWR 2 MI E OF ARPT.
FOR CD CTC MEMPHIS ARTCC AT 901-368-8453/8449.

Instrument Procedures

There are no published instrument procedures at 8TN7.

Some nearby airports with instrument procedures:

KPHT - Henry County Airport (19 nm W)
0M5 - Humphreys County Airport (21 nm SE)
KCEY - Kyle-Oakley Field Airport (24 nm NW)
0M4 - Benton County Airport (24 nm S)
KEOD - Sabre Army Airfield (Fort Campbell) (27 nm E)
 
Loc | Ops | Rwys | IFR | FBO | Links
Com | Nav | Svcs | Stats | Notes
Area around 8TN7 (Short Creek Airport)
 
Road maps at: MapQuest Bing Google
 
Aerial photo
WARNING: Photo may not be current or correct
Aerial photo of 8TN7 (Short Creek Airport)
Photo by Brad Bertele
Taken in August 2005

Do you have a better or more recent aerial photo of Short Creek Airport that you would like to share? If so, please send us your photo.

 
Sectional chart

 
Airport distance calculator
Flying to Short Creek Airport? Find the distance to fly.

From to 8TN7

Sunrise and sunset
Times for 13-May-2021
 Local
(UTC-5)
 Zulu
(UTC)
Morning civil twilight05:1910:19
Sunrise05:4810:48
Sunset19:4900:49
Evening civil twilight20:1701:17

Current date and time
Zulu (UTC)  13-May-2021 12:10:05
Local (UTC-5)  13-May-2021 07:10:05
 
METAR
KPHT 
19nm W 
131155Z AUTO 02006KT 10SM CLR 08/05 A3033 RMK A01
KCEY 
24nm NW 
131155Z AUTO 01004KT 10SM CLR 08/04 A3035 RMK AO1
KEOD 
27nm E 
131158Z AUTO 02004KT 9SM CLR 09/04 A3033 RMK AO2 SLP273 T00870036 10089 20048 52007
KHOP 
29nm NE 
131156Z AUTO 02007KT 10SM CLR 09/05 A3033 RMK AO2 SLP273 T00870054 10089 20056 52007
KHZD 
30nm SW 
131155Z AUTO VRB05KT 10SM CLR 09/05 A3031 RMK A01
KCKV 
31nm NE 
131152Z AUTO 03005KT 10SM CLR 09/03 A3033 RMK AO2 SLP270 T00940028 10100 20067 53008
KM02 
32nm SE 
131155Z AUTO 04005KT 10SM 09/03 A3030 RMK A01
KM25 
36nm NW 
131135Z AUTO 00000KT 10SM CLR 07/03 A3035 RMK AO2
TAF
KHOP 
29nm NE 
130800Z 1308/1414 02006KT 9999 SKC QNH3029INS BECMG 1311/1312 03006KT 9999 FEW065 QNH3030INS TX17/1318Z TN07/1311Z
KCKV 
31nm NE 
131129Z 1312/1412 36004KT P6SM SKC FM131600 02009KT P6SM SCT060 FM140300 02002KT P6SM SKC
NOTAMs
Click for the latest NOTAMs
NOTAMs are issued by the DoD/FAA and will open in a separate window not controlled by AirNav.

 

 
 

Would you like to see your business listed on this page?

 If your business provides an interesting product or service to pilots, flight crews, aircraft, or users of the Short Creek Airport, you should consider listing it here.  To start the listing process, click on the button below
 
Add a business
 

Other Pages about Short Creek Airport

Update a link
 
Copyright © AirNav, LLC. All rights reserved. Privacy Policy  Contact